sat.trackr.live / text

‹ back to catalog

2026-106B

NORAD 69098 · 2026-106B

PAYLOAD ACTIVE UNKNOWN

§ Identity

Operator
Country
PRC
Launch date
2026-05-15
Launch site
JSC
Launch vehicle
Mass (kg)
RCS (m²)

External: N2YO · Heavens-Above · Gunter

§ Orbital elements

Epoch: 2026-05-15T19:54:07.899840Z

Period
95.31 min
Inclination
97.5046°
Eccentricity
0.0013053
Mean motion
15.10832199 rev/d
Perigee alt
524.6 km
Apogee alt
542.7 km
Semi-major
6,911.8 km
B*
6.5499e-5
RAAN
218.5086°
Arg perigee
280.0851°
Mean anomaly
79.8906°
Rev number
2

§ Raw data

2026-106B1 69098U 26106B   26135.82925810  .00001026  00000+0  65499-4 0  99942 69098  97.5046 218.5086 0013053 280.0851  79.8906 15.10832199    21

JSON: /api/v1/satellites/69098 · /tle

For live sub-satellite position, see the globe view (requires WebGL).

§ Visibility from observer

Set your observer location to see the next 7 days of passes ≥ 10°. The values pass through the URL so the page stays shareable.

No JS? Fill the form by hand. The geolocation button needs JavaScript.